Location: Étang Rond
(42.7927°N, 1.0661°E)
Time: 01:04:47
(UTC+00:00)

Meteor 2-14 Rocket - Pass Details

Date: 08 November 2025
Orbit: 936 x 957 km, 82.5° (Epoch: 07 December)

Event Time Altitude Azimuth Distance (km) Brightness Sun altitude
Rises 04:01:23 0° 181° (S) 3,609 7.4 -29.1°
Reaches altitude 10° 04:03:52 10° 180° (S) 2,665 6.7 -28.6°
Maximum altitude 04:09:57 77° 96° (E) 975 4.5 -27.5°
Drops below altitude 10° 04:16:02 10° 11° (N) 2,669 6.9 -26.4°
Sets 04:18:32 0° 10° (N) 3,615 7.6 -26.0°
